Regional Weather Roundup
Issued by NWS

Home | Current Version | Previous Version | Text Only | Print | Product List | Glossary On
Versions: 1 2 3 4 5 6 7 8 9 10 11 12 13 14 15 16 17 18 19 20 21 22 23 24 25 26 27 28 29 30 31 32 33 34 35 36 37 38 39 40 41 42 43 44 45 46 47 48 49 50
929
ASUS43 KDTX 031710
RWRMI
MICHIGAN HOURLY REGIONAL WEATHER ROUNDUP
NATIONAL WEATHER SERVICE DETROIT/PONTIAC MI
100 PM EDT TUE MAY 03 2016

NOTE: "FAIR" INDICATES FEW OR NO CLOUDS BELOW 12,000 FEET WITH NO
SIGNIFICANT WEATHER AND/OR OBSTRUCTION TO VISIBILITY.

MIZ047>049-052>055-059>063-066>070-074>076-081>083-031800-
SOUTHEAST LOWER MICHIGAN

CITY           SKY/WX    TMP DP  RH WIND       PRES   REMARKS
ADRIAN         PTSUNNY   61  36  39 N5        29.90F
ALMA           MOSUNNY   63  33  32 W14G20    29.86F
ANN ARBOR      MOSUNNY   62  33  33 VRB5      29.88F
BAD AXE        SUNNY     61  33  34 W7G16     29.87F
CARO           SUNNY     62  36  37 SW10      29.86F
DETROIT CITY   MOSUNNY   59  40  49 SE12      29.88F
DETROIT        PTSUNNY   60  40  47 W7        29.89F
FLINT          SUNNY     64  35  34 W7        29.88F
GROSSE ILE     PTSUNNY   55  45  67 S8        29.88F
HILLSDALE      MOSUNNY   60  32  35 NW8       29.90S
HOWELL         SUNNY     61  35  37 NW9       29.88F

CITY           SKY/WX    TMP DP  RH WIND       PRES   REMARKS
JACKSON        MOSUNNY   61  31  32 NW10      29.89F
LAMBERTVILLE   MOSUNNY   62  45  55 NW6       29.90F
LANSING        SUNNY     61  36  39 W9        29.89F
LAPEER         FAIR      61  32  33 W7        29.87F
MASON          PTSUNNY   60  37  42 W3        29.89F
MONROE         PTSUNNY   60  48  63 E6        29.89F
MT. CLEMENS    SUNNY     59  39  48 SE7       29.87F
PONTIAC        PTSUNNY   59  30  33 VRB6      29.87F
PORT HOPE        N/A     50  39  66 E9        29.85F
PORT HURON     SUNNY     59  34  38 CALM      29.88F
TRI CITIES     SUNNY     64  36  35 SW14      29.86F
MIDLAND        PTSUNNY   64  35  33 SW12G18   29.84F
TROY           MOSUNNY   62  29  28 CALM      29.89F
SAGINAW HB     SUNNY     63  36  36 SW12      29.85F
$$
MIZ043>046-050>051-056>058-064>065-071>073-077>080-031800-
SOUTHWEST LOWER MICHIGAN

CITY           SKY/WX    TMP DP  RH WIND       PRES   REMARKS
BATTLE CREEK   SUNNY     63  35  35 VRB5      29.90F
BENTON HARBOR  SUNNY     58  36  43 W9        29.93F
BIG RAPIDS     MOSUNNY   63  29  27 W6G21     29.83F
COLDWATER      PTSUNNY   60  39  45 NW5       29.91S
FREMONT        FAIR      63  29  28 SW14G21   29.86F
HOLLAND        SUNNY     60  35  39 W12       29.91F
GRAND RAPIDS   MOSUNNY   63  38  39 SW12G20   29.89F
IONIA          FAIR      64  33  32 W14       29.87F
KALAMAZOO      MOSUNNY   63  37  38 SW5       29.91F
LUDINGTON      SUNNY     56  39  53 SW12      29.86F
MARSHALL         N/A    N/A N/A N/A MISG        N/A
MOUNT PLEASANT SUNNY     65  35  33 W8        29.84F
MUSKEGON       MOSUNNY   59  34  39 SW13      29.89F
SOUTH HAVEN    SUNNY     58  32  37 W7        29.92F
$$
MIZ016>042-031800-
NORTHERN LOWER MICHIGAN

CITY           SKY/WX    TMP DP  RH WIND       PRES   REMARKS
ALPENA         PTSUNNY   65  30  27 S8        29.79F
BEAVER ISLAND  MOSUNNY   58  36  44 SW14      29.75F
BELLAIRE       SUNNY     65  33  30 SW10G16   29.78F
CADILLAC       MOSUNNY   65  34  31 SW13G23   29.80F
CHARLEVOIX     MOSUNNY   62  38  40 W12       29.80F
FRANKFORT      MOSUNNY   57  40  53 SW7G17    29.82F
GAYLORD        MOSUNNY   65  30  27 SW18G25   29.78F
GRAYLING       PTSUNNY   66  32  28 SW16G23   29.79F
HARBOR SPRINGS MOSUNNY   60  35  40 W9G16     29.77F
HOUGHTON LAKE  SUNNY     63  33  32 SW9       29.81F
MANISTEE       MOSUNNY   63  34  34 W13       29.83F
OSCODA         MOSUNNY   64  34  32 S17G23    29.82F
PELLSTON       MOSUNNY   63  32  31 W9G18     29.76F
ROGERS CITY    MOSUNNY   64  30  27 W5G18     29.77F
TRAVERSE CITY  MOSUNNY   68  35  29 W12G20    29.78F
$$
MIZ007>008-015-031800-
EASTERN UPPER MICHIGAN

CITY           SKY/WX    TMP DP  RH WIND       PRES   REMARKS
KINROSS          N/A     61  34  36 S13G22    29.73F
MACKINAC ISLAN MOSUNNY   55  36  49 W9G17     29.76F
NEWBERRY       CLOUDY    55  37  50 S13       29.71F
S. S. MARIE    CLOUDY    62  33  33 S13       29.71F
MUNISING         N/A     66  31  27 SW10G18   29.65F
$$
MIZ004>006-011>014-085-031800-
CENTRAL UPPER MICHIGAN

CITY           SKY/WX    TMP DP  RH WIND       PRES   REMARKS
MANISTIQUE     CLOUDY    48  39  70 S18G24    29.72F
ESCANABA       CLOUDY    59  37  44 S12       29.70F VSB 1/2
MENOMINEE      MOSUNNY   70  32  24 W15G23    29.74F
SAWYER-GWINN   CLOUDY    63  32  31 W14G24    29.70F
$$
MIZ001>003-009>011-084-031800-
WESTERN UPPER MICHIGAN

CITY           SKY/WX    TMP DP  RH WIND       PRES   REMARKS
IRON MOUNTAIN  CLOUDY    65  32  29 SW17G23   29.69F
HOUGHTON       LGT RAIN  47  42  83 W18       29.66F
COPPER HARBOR    N/A     43  42  97 N9        29.65S
IRONWOOD         N/A     55  37  50 W26G48    29.71F
$$

ABBREVIATIONS USED IN REMARKS
   TC - TEMPERATURE IN CELSIUS
  WCI - WIND CHILL INDEX
   HX - HEAT INDEX
  VSB - VISIBILITY





USA.gov is the U.S. government's official web portal to all federal, state and local government web resources and services.